When you browse on this site, cookies collect data to enhance your experience and personalize the content and advertising you see.
Visit our Privacy Policy to learn more. By continuing to use the site, you agree to this use of cookies and data.
  • In Latvia
  • List of Countries
  • For 7 days
  • Water Temperature
  • Weather Map
  • Weather Widgets
  • user-avatar
    Login

    Hourly Weather Kitzbuhel

    Today, 8 December, Sunday

    Time Temperature Precipitation Wind Pressure Humidity
    00:00 +3°C° 0 mm 1 mps 678 mmHg 90%
    01:00 +2°C° 0 mm 1 mps 678 mmHg 87%
    02:00 +2°C° 0 mm 1 mps 677 mmHg 83%
    03:00 +2°C° 0 mm 1 mps 676 mmHg 78%
    04:00 +1°C° 0 mm 2 mps 676 mmHg 74%
    05:00 +1°C° 0 mm 2 mps 676 mmHg 71%
    06:00 +1°C° 0 mm 2 mps 676 mmHg 67%
    07:00 +1°C° 0 mm 2 mps 676 mmHg 64%
    08:00 +2°C° 0 mm 2 mps 676 mmHg 62%
    09:00 +4°C° 0 mm 1 mps 676 mmHg 60%
    10:00 +6°C° 0 mm 1 mps 676 mmHg 57%
    11:00 +6°C° 0 mm 1 mps 675 mmHg 60%
    12:00 +7°C° 0 mm 1 mps 675 mmHg 63%
    13:00 +8°C° 0 mm 1 mps 675 mmHg 66%
    14:00 +7°C° 0 mm 1 mps 674 mmHg 67%
    15:00 +5°C° 0 mm 1 mps 674 mmHg 67%
    16:00 +4°C° 0 mm 1 mps 673 mmHg 68%
    17:00 +4°C° 0 mm 1 mps 673 mmHg 65%
    18:00 +2°C° 0 mm 2 mps 673 mmHg 61%
    19:00 +2°C° 0 mm 2 mps 673 mmHg 58%
    20:00 +2°C° 0 mm 2 mps 672 mmHg 57%
    21:00 +2°C° 0 mm 2 mps 672 mmHg 56%
    22:00 +2°C° 0 mm 2 mps 672 mmHg 55%
    23:00 +2°C° 0 mm 2 mps 671 mmHg 56%

    Tomorrow, 9 December, Monday

    Time Temperature Precipitation Wind Pressure Humidity
    00:00 +1°C° 0 mm 2 mps 671 mmHg 56%
    01:00 +1°C° 0 mm 2 mps 671 mmHg 57%
    02:00 +1°C° 0 mm 2 mps 670 mmHg 59%
    03:00 +2°C° 0 mm 1 mps 670 mmHg 60%
    04:00 +3°C° 0 mm 1 mps 670 mmHg 62%
    05:00 +2°C° 0.2 mm 1 mps 670 mmHg 69%
    06:00 +2°C° 0.2 mm 1 mps 670 mmHg 76%
    07:00 +2°C° 0.2 mm 1 mps 670 mmHg 83%
    08:00 +2°C° 0.3 mm 1 mps 670 mmHg 85%
    09:00 +2°C° 0.3 mm 1 mps 670 mmHg 87%
    10:00 +3°C° 0.3 mm 1 mps 670 mmHg 89%
    11:00 +3°C° 0.1 mm 1 mps 669 mmHg 86%
    12:00 +4°C° 0.1 mm 1 mps 669 mmHg 82%
    13:00 +5°C° 0.1 mm 1 mps 669 mmHg 79%
    14:00 +4°C° 0 mm 1 mps 669 mmHg 81%
    15:00 +3°C° 0 mm 1 mps 668 mmHg 82%
    16:00 +1°C° 0 mm 0 mps 668 mmHg 83%
    17:00 +2°C° 0.1 mm 1 mps 669 mmHg 86%
    18:00 +2°C° 0.1 mm 1 mps 670 mmHg 89%
    19:00 +1°C° 0.1 mm 1 mps 670 mmHg 92%
    20:00 +1°C° 0.2 mm 1 mps 671 mmHg 91%
    21:00 +1°C° 0.2 mm 1 mps 671 mmHg 89%
    22:00 +1°C° 0.2 mm 1 mps 672 mmHg 88%
    23:00 +1°C° 0.9 mm 1 mps 673 mmHg 91%

    Day after tomorrow, 10 December, Tuesday

    Time Temperature Precipitation Wind Pressure Humidity
    00:00 -1°C° 0.9 mm 2 mps 674 mmHg 94%
    01:00 -1°C° 0.9 mm 2 mps 674 mmHg 97%
    02:00 -1°C° 1 mm 2 mps 675 mmHg 96%
    03:00 -2°C° 1 mm 2 mps 676 mmHg 96%
    04:00 -2°C° 1 mm 2 mps 676 mmHg 95%
    05:00 -3°C° 0.5 mm 2 mps 677 mmHg 95%
    06:00 -3°C° 0.5 mm 2 mps 677 mmHg 95%
    07:00 -2°C° 0.5 mm 1 mps 678 mmHg 96%
    08:00 -1°C° 0.4 mm 1 mps 679 mmHg 94%
    09:00 -1°C° 0.4 mm 1 mps 679 mmHg 93%
    10:00 0°C° 0.4 mm 1 mps 680 mmHg 91%
    11:00 0°C° 0.3 mm 1 mps 680 mmHg 89%
    12:00 -2°C° 0.3 mm 2 mps 680 mmHg 87%
    13:00 -2°C° 0.3 mm 2 mps 680 mmHg 85%
    14:00 -1°C° 0.1 mm 1 mps 679 mmHg 87%
    15:00 -2°C° 0.1 mm 1 mps 679 mmHg 90%
    16:00 -4°C° 0.1 mm 0 mps 679 mmHg 92%
    17:00 -4°C° 0 mm 1 mps 679 mmHg 89%
    18:00 -4°C° 0 mm 1 mps 679 mmHg 85%
    19:00 -6°C° 0 mm 1 mps 679 mmHg 82%
    20:00 -7°C° 0 mm 2 mps 679 mmHg 77%
    21:00 -7°C° 0 mm 2 mps 679 mmHg 72%
    22:00 -7°C° 0 mm 2 mps 679 mmHg 67%
    23:00 -7°C° 0 mm 2 mps 678 mmHg 63%

    11 December, Wednesday

    Time Temperature Precipitation Wind Pressure Humidity
    00:00 -7°C° 0 mm 2 mps 678 mmHg 59%
    01:00 -6°C° 0 mm 2 mps 677 mmHg 56%
    02:00 -6°C° 0 mm 2 mps 677 mmHg 53%
    03:00 -6°C° 0 mm 2 mps 677 mmHg 50%
    04:00 -5°C° 0 mm 2 mps 676 mmHg 48%
    05:00 -5°C° 0 mm 2 mps 676 mmHg 46%
    06:00 -5°C° 0 mm 2 mps 676 mmHg 45%
    07:00 -5°C° 0 mm 2 mps 676 mmHg 43%
    08:00 -1°C° 0 mm 1 mps 676 mmHg 45%
    09:00 0°C° 0 mm 1 mps 676 mmHg 46%
    10:00 +2°C° 0 mm 1 mps 676 mmHg 48%
    11:00 +3°C° 0 mm 1 mps 676 mmHg 52%
    12:00 +3°C° 0 mm 0 mps 675 mmHg 55%
    13:00 +4°C° 0 mm 0 mps 674 mmHg 59%
    14:00 +3°C° 0 mm 0 mps 674 mmHg 56%
    15:00 +1°C° 0 mm 0 mps 673 mmHg 53%
    16:00 0°C° 0 mm 0 mps 672 mmHg 51%
    17:00 0°C° 0 mm 1 mps 672 mmHg 49%
    18:00 0°C° 0 mm 1 mps 672 mmHg 48%
    19:00 -1°C° 0 mm 1 mps 672 mmHg 47%
    20:00 -1°C° 0 mm 1 mps 672 mmHg 50%
    21:00 0°C° 0 mm 1 mps 672 mmHg 53%
    22:00 0°C° 0 mm 1 mps 672 mmHg 56%
    23:00 0°C° 0.3 mm 1 mps 672 mmHg 67%

    12 December, Thursday

    Time Temperature Precipitation Wind Pressure Humidity
    00:00 -1°C° 0.3 mm 0 mps 672 mmHg 78%
    01:00 -1°C° 0.3 mm 0 mps 671 mmHg 89%
    02:00 -1°C° 0.5 mm 0 mps 671 mmHg 92%
    03:00 0°C° 0.5 mm 1 mps 671 mmHg 94%
    04:00 0°C° 0.5 mm 1 mps 670 mmHg 96%
    05:00 0°C° 1 mm 1 mps 670 mmHg 96%
    06:00 0°C° 1 mm 1 mps 670 mmHg 96%
    07:00 -1°C° 1 mm 1 mps 670 mmHg 96%
    08:00 0°C° 0.3 mm 1 mps 671 mmHg 95%
    09:00 0°C° 0.3 mm 1 mps 671 mmHg 93%
    10:00 0°C° 0.3 mm 1 mps 671 mmHg 92%
    11:00 0°C° 0.6 mm 1 mps 671 mmHg 93%
    12:00 0°C° 0.6 mm 1 mps 671 mmHg 93%
    13:00 -2°C° 0.6 mm 2 mps 671 mmHg 94%
    14:00 0°C° 0.4 mm 1 mps 671 mmHg 94%
    15:00 -1°C° 0.4 mm 1 mps 671 mmHg 94%
    16:00 -1°C° 0.4 mm 1 mps 671 mmHg 93%
    17:00 -2°C° 0 mm 1 mps 671 mmHg 92%
    18:00 -3°C° 0 mm 1 mps 672 mmHg 92%
    19:00 -4°C° 0 mm 1 mps 672 mmHg 91%
    20:00 -6°C° 0 mm 1 mps 671 mmHg 87%
    21:00 -7°C° 0 mm 2 mps 671 mmHg 84%
    22:00 -7°C° 0 mm 2 mps 671 mmHg 81%
    23:00 -7°C° 0 mm 2 mps 670 mmHg 77%

    13 December, Friday

    Time Temperature Precipitation Wind Pressure Humidity
    00:00 -8°C° 0 mm 3 mps 670 mmHg 74%
    01:00 -8°C° 0 mm 3 mps 669 mmHg 70%
    02:00 -8°C° 0 mm 3 mps 668 mmHg 68%
    03:00 -8°C° 0 mm 4 mps 668 mmHg 66%
    04:00 -8°C° 0 mm 4 mps 667 mmHg 65%
    05:00 -7°C° 0.2 mm 4 mps 666 mmHg 67%
    06:00 -5°C° 0.2 mm 4 mps 666 mmHg 70%
    07:00 -4°C° 0.2 mm 4 mps 665 mmHg 73%
    08:00 -4°C° 0.3 mm 4 mps 665 mmHg 75%
    09:00 -3°C° 0.3 mm 4 mps 665 mmHg 76%
    10:00 -3°C° 0.3 mm 4 mps 664 mmHg 78%
    11:00 -2°C° 0.1 mm 4 mps 664 mmHg 78%
    12:00 -1°C° 0.1 mm 4 mps 664 mmHg 78%
    13:00 +1°C° 0.1 mm 3 mps 664 mmHg 78%
    14:00 0°C° 0.2 mm 3 mps 663 mmHg 80%
    15:00 0°C° 0.2 mm 3 mps 663 mmHg 83%
    16:00 -1°C° 0.2 mm 2 mps 663 mmHg 85%
    17:00 -1°C° 0.7 mm 2 mps 664 mmHg 88%
    18:00 -1°C° 0.7 mm 2 mps 664 mmHg 92%
    19:00 -1°C° 0.7 mm 2 mps 664 mmHg 96%
    20:00 -1°C° 0.6 mm 2 mps 664 mmHg 96%
    21:00 -1°C° 0.6 mm 2 mps 665 mmHg 95%
    22:00 -1°C° 0.6 mm 2 mps 665 mmHg 95%
    23:00 +1°C° 1.4 mm 2 mps 664 mmHg 95%
    Show more